STARLINK-2586, 48390

Orbit data source: Space-Track

STARLINK-2586, 48390 is a payload satellite owned by SpaceX/Seattle (US) in LEO that was launched on Tue, 04 May 2021 UTC via an FALCON 9 launch vehicle from the Air Force Eastern Test Range (AFETR). Payload-class satellites include a variety of spacecraft equipped with specific instruments for various scientific and technological missions. These include communications satellites like Starlink; space stations such as the ISS; scientific satellites like the Hubble; Earth observation satellites from companies like Planet Labs, Umbra, and HawkEye 360; GPS; miniature CubeSats for education and research; and military/defense satellites.

Loading next visibility...
Identifier
48390, 2021-038AP
Orbit
LEO
Country
Flag of USUS
Related business
Manufacturer
SpaceX/Seattle
Mission
Operational Commercial Communications
Bus & Motor
STARLINK, Unknown motor
Mass
260 kg wet, ~248 kg dry
Launch date (UTC)
2021-05-04 (5 years ago)
Launch vehicle
FALCON 9
Launch site
Air Force Eastern Test Range (AFETR)
Object type
Payload
Rocket body
Debris
Shape & HBR
Box + 1 Pan, 10.1 m
Radar Cross Section
13.562 m², Large (>1 m²)

Expand to show TLE details & history
Last TLE update: 2 days ago

TLE from 2 days ago
0 STARLINK-2586
1 48390U 21038AP  26171.40043744  .00000558  00000-0  29745-4 0  9990
2 48390  53.1587 214.8268 0001100  85.6994 274.4133 15.31704245284391
Epoch: 2026-06-20T09:36Z
TLE epoch observation values (Epoch: 2026-06-20T09:36:37.794Z)
Latitude
-0.00004°
Longitude
162.05369°
Altitude
471.57 km
Speed
7.632 km/s
True Right ascension
14h 19m 18s
True Declination
0° 00' 00"
Sunlit
Object was in full shadow at epoch
Visualization orbit readout
Latitude
Unknown
Longitude
Unknown
Altitude
Unknown
Speed
Unknown
Apparent Right ascension
Unknown
Apparent Declination
Unknown
Sunlit
N/A
Visualization observer readout
Local Sidereal Time
21:44:36
Azimuth
Unknown
Elevation
Unknown
Doppler factor
Unknown
Orbital elements
Apogee altitude
471.738 km
Perigee altitude
470.231 km
Semi-major axis
6,849.121 km
Eccentricity
0.00011
Inclination
53.1587°
RAAN
214.8268°
Arg. of periapsis
85.6994°
True anomaly
274.40073°
Mean anomaly
274.4133°
Eccentric anomaly
274.40702°
Mean motion
3.82905 °/min
Orbital period
94.02 mins
BSTAR
0.000029745
Loading maneuver chart data...
Computing Atmospheric mass density...
Loading historical data...
Loading historical data...
Loading historical data...
Loading historical data...
Loading historical data...
Loading historical data...
Loading historical data...

Documentation

Showing up to 5 results
|